Location: Sunkist
(34.0772°N, 117.1909°W)
Time: 15:01:50
(UTC+00:00)

SL-16 R/B - Pass Details

Date: 13 April 2024
Orbit: 839 x 849 km, 71.0° (Epoch: 26 May)

Event Time Altitude Azimuth Distance (km) Brightness Sun altitude
Exits shadow 12:40:34 - 231° (SW) 2,596 4.2 -8.6°
Reaches altitude 10° 12:41:01 10° 233° (SW) 2,447 4.0 -8.5°
Maximum altitude 12:46:04 34° 297° (WNW) 1,352 2.9 -7.5°
Drops below altitude 10° 12:51:10 10° 2° (N) 2,463 4.9 -6.5°
Sets 12:53:52 0° 12° (NNE) 3,403 5.7 -6.0°
